| time (UTC) | temp F | wind direction | speed MPH | gust MPH | rain 1hr in | rain 24hr in | rain mn in | humidity % | barometer mb |
| 20260903222020 | 78 | 0 | 0.0 | 1.0 | 0.00 | 0.15 | 0.00 | 78 | 1013.1 |
| 20260903221550 | 79 | 0 | 0.0 | 1.0 | 0.00 | 0.15 | 0.00 | 76 | 1013.0 |
| 20260903220040 | 79 | 0 | 0.0 | 2.0 | 0.00 | 0.15 | 0.00 | 71 | 1012.9 |
| 20260903214538 | 80 | 30 | 1.0 | 3.0 | 0.00 | 0.15 | 0.00 | 69 | 1012.9 |
| 20260903213520 | 80 | 0 | 0.0 | 4.0 | 0.00 | 0.15 | 0.00 | 73 | 1012.8 |
| 20260903213039 | 80 | 30 | 0.0 | 4.0 | 0.00 | 0.15 | 0.00 | 71 | 1012.8 |
| 20260903212522 | 80 | 28 | 0.0 | 3.0 | 0.00 | 0.15 | 0.00 | 71 | 1012.8 |
| 20260903212021 | 80 | 0 | 0.0 | 3.0 | 0.00 | 0.15 | 0.00 | 68 | 1012.9 |
| 20260903211548 | 80 | 0 | 0.0 | 3.0 | 0.00 | 0.15 | 0.00 | 70 | 1012.9 |
| 20260903210042 | 79 | 0 | 1.0 | 4.0 | 0.00 | 0.15 | 0.00 | 71 | 1013.2 |
| 20260903205521 | 79 | 265 | 1.0 | 4.0 | 0.00 | 0.15 | 0.00 | 72 | 1013.1 |
| 20260903204540 | 80 | 0 | 1.0 | 6.0 | 0.00 | 0.15 | 0.00 | 72 | 1013.2 |
| 20260903204024 | 80 | 319 | 0.0 | 5.0 | 0.00 | 0.15 | 0.00 | 72 | 1013.2 |
| 20260903203523 | 80 | 277 | 1.0 | 5.0 | 0.00 | 0.15 | 0.00 | 72 | 1013.2 |
| 20260903203048 | 79 | 290 | 1.0 | 5.0 | 0.00 | 0.15 | 0.00 | 74 | 1013.2 |
| 20260903202520 | 79 | 27 | 0.0 | 3.0 | 0.00 | 0.15 | 0.00 | 75 | 1013.2 |
| 20260903202026 | 79 | 0 | 0.0 | 3.0 | 0.00 | 0.15 | 0.00 | 75 | 1013.1 |
| 20260903201539 | 79 | 0 | 0.0 | 4.0 | 0.00 | 0.15 | 0.00 | 74 | 1013.2 |
| 20260903200047 | 80 | 296 | 1.0 | 5.0 | 0.00 | 0.15 | 0.00 | 69 | 1013.1 |
| 20260903194543 | 80 | 0 | 0.0 | 3.0 | 0.00 | 0.15 | 0.00 | 73 | 1013.4 |
| 20260903193520 | 80 | 265 | 1.0 | 4.0 | 0.00 | 0.15 | 0.00 | 68 | 1013.3 |
| 20260903193039 | 80 | 0 | 1.0 | 6.0 | 0.00 | 0.15 | 0.00 | 71 | 1013.4 |
| 20260903192519 | 81 | 265 | 0.0 | 6.0 | 0.00 | 0.15 | 0.00 | 68 | 1013.6 |
| 20260903192019 | 81 | 265 | 2.0 | 6.0 | 0.00 | 0.15 | 0.00 | 64 | 1013.6 |
| 20260903191539 | 82 | 260 | 2.0 | 5.0 | 0.00 | 0.15 | 0.00 | 66 | 1013.5 |
| 20260903190041 | 81 | 307 | 1.0 | 4.0 | 0.00 | 0.15 | 0.00 | 67 | 1013.6 |
| 20260903185024 | 82 | 348 | 1.0 | 8.0 | 0.00 | 0.15 | 0.00 | 67 | 1013.8 |
| 20260903184540 | 82 | 265 | 0.0 | 8.0 | 0.00 | 0.15 | 0.00 | 65 | 1013.7 |
| 20260903184020 | 82 | 255 | 0.0 | 4.0 | 0.00 | 0.15 | 0.00 | 68 | 1013.6 |
| 20260903183520 | 82 | 0 | 0.0 | 4.0 | 0.00 | 0.15 | 0.00 | 68 | 1013.5 |
| 20260903183042 | 81 | 0 | 0.0 | 4.0 | 0.00 | 0.15 | 0.00 | 66 | 1013.7 |
| 20260903181538 | 80 | 0 | 0.0 | 7.0 | 0.00 | 0.15 | 0.00 | 71 | 1013.7 |
| 20260903180524 | 80 | 27 | 1.0 | 7.0 | 0.00 | 0.15 | 0.00 | 73 | 1013.8 |
| 20260903180110 | 80 | 0 | 1.0 | 4.0 | 0.00 | 0.15 | 0.00 | 70 | 1013.7 |
| 20260903175520 | 80 | 0 | 1.0 | 9.0 | 0.00 | 0.15 | 0.00 | 70 | 1013.7 |
| 20260903175020 | 80 | 0 | 0.0 | 9.0 | 0.00 | 0.15 | 0.00 | 71 | 1013.7 |
| 20260903174546 | 81 | 328 | 1.0 | 9.0 | 0.00 | 0.15 | 0.00 | 71 | 1013.9 |
| 20260903173043 | 80 | 303 | 2.0 | 7.0 | 0.00 | 0.15 | 0.00 | 74 | 1013.9 |
| 20260903171548 | 79 | 271 | 1.0 | 4.0 | 0.00 | 0.15 | 0.00 | 78 | 1013.9 |
| 20260903170040 | 78 | 323 | 1.0 | 6.0 | 0.00 | 0.15 | 0.00 | 80 | 1014.1 |
| 20260903164546 | 79 | 57 | 0.0 | 5.0 | 0.00 | 0.18 | 0.00 | 80 | 1014.1 |
| 20260903163043 | 78 | 255 | 2.0 | 5.0 | 0.00 | 0.18 | 0.00 | 82 | 1014.1 |
| 20260903162020 | 77 | 0 | 1.0 | 8.0 | 0.00 | 0.18 | 0.00 | 83 | 1014.1 |
| 20260903161539 | 77 | 273 | 2.0 | 8.0 | 0.00 | 0.18 | 0.00 | 83 | 1014.2 |
| 20260903160520 | 77 | 269 | 2.0 | 8.0 | 0.00 | 0.18 | 0.00 | 83 | 1014.2 |
| 20260903160038 | 77 | 219 | 0.0 | 8.0 | 0.00 | 0.18 | 0.00 | 88 | 1014.2 |
| 20260903155522 | 76 | 217 | 1.0 | 8.0 | 0.00 | 0.33 | 0.00 | 87 | 1014.3 |
| 20260903155024 | 77 | 255 | 1.0 | 6.0 | 0.00 | 0.33 | 0.00 | 87 | 1014.3 |
| 20260903154539 | 77 | 270 | 0.0 | 4.0 | 0.00 | 0.33 | 0.00 | 88 | 1014.3 |
| 20260903153041 | 76 | 0 | 0.0 | 6.0 | 0.00 | 0.33 | 0.00 | 89 | 1014.5 |
| 20260903151540 | 74 | 0 | 0.0 | 5.0 | 0.00 | 0.33 | 0.00 | 92 | 1014.5 |
| 20260903150039 | 74 | 0 | 0.0 | 1.0 | 0.00 | 0.33 | 0.00 | 92 | 1014.6 |
| 20260903145520 | 73 | 0 | 0.0 | 6.0 | 0.00 | 0.40 | 0.00 | 92 | 1014.6 |
| 20260903145024 | 74 | 0 | 0.0 | 7.0 | 0.00 | 0.40 | 0.00 | 91 | 1014.6 |
| 20260903144541 | 74 | 270 | 0.0 | 7.0 | 0.00 | 0.40 | 0.00 | 91 | 1014.5 |
| 20260903144021 | 74 | 0 | 0.0 | 8.0 | 0.00 | 0.40 | 0.00 | 91 | 1014.5 |
| 20260903143518 | 73 | 271 | 2.0 | 8.0 | 0.00 | 0.40 | 0.00 | 89 | 1014.6 |
| 20260903143043 | 74 | 270 | 3.0 | 8.0 | 0.00 | 0.40 | 0.00 | 89 | 1014.6 |
| 20260903141540 | 74 | 265 | 2.0 | 8.0 | 0.00 | 0.40 | 0.00 | 89 | 1014.2 |
| 20260903140040 | 74 | 271 | 2.0 | 7.0 | 0.00 | 0.40 | 0.00 | 89 | 1014.1 |
| 20260903135521 | 74 | 273 | 3.0 | 7.0 | 0.00 | 0.40 | 0.00 | 90 | 1014.1 |
| 20260903135021 | 74 | 0 | 0.0 | 4.0 | 0.00 | 0.40 | 0.00 | 93 | 1014.0 |
| 20260903134540 | 73 | 265 | 1.0 | 7.0 | 0.00 | 0.40 | 0.00 | 92 | 1013.9 |
| 20260903134017 | 73 | 265 | 2.0 | 7.0 | 0.00 | 0.40 | 0.00 | 92 | 1014.0 |
| 20260903133043 | 72 | 0 | 0.0 | 1.0 | 0.00 | 0.40 | 0.00 | 96 | 1014.0 |
| 20260903131541 | 71 | 0 | 0.0 | 1.0 | 0.00 | 0.40 | 0.00 | 97 | 1014.0 |
| 20260903131020 | 70 | 0 | 0.0 | 0.0 | 0.00 | 0.40 | 0.00 | 98 | 1014.2 |
| 20260903130520 | 70 | 0 | 0.0 | 0.0 | 0.00 | 0.40 | 0.00 | 97 | 1014.2 |
| 20260903130058 | 70 | 0 | 0.0 | 0.0 | 0.00 | 0.40 | 0.00 | 97 | 1014.2 |
| 20260903124539 | 70 | 0 | 0.0 | 0.0 | 0.00 | 0.40 | 0.00 | 97 | 1014.3 |
| 20260903123523 | 69 | 0 | 0.0 | 0.0 | 0.00 | 0.40 | 0.00 | 98 | 1014.3 |
| 20260903123041 | 69 | 0 | 0.0 | 0.0 | 0.00 | 0.40 | 0.00 | 98 | 1014.2 |
| 20260903122521 | 69 | 0 | 0.0 | 0.0 | 0.00 | 0.40 | 0.00 | 98 | 1014.3 |
| 20260903122024 | 69 | 0 | 0.0 | 0.0 | 0.00 | 0.40 | 0.00 | 98 | 1014.1 |
| 20260903121545 | 69 | 0 | 0.0 | 0.0 | 0.00 | 0.40 | 0.00 | 98 | 1014.2 |
| 20260903121020 | 69 | 0 | 0.0 | 0.0 | 0.00 | 0.40 | 0.00 | 98 | 1014.2 |
| 20260903120520 | 68 | 0 | 0.0 | 0.0 | 0.00 | 0.40 | 0.00 | 98 | 1014.2 |
| 20260903120040 | 68 | 0 | 0.0 | 0.0 | 0.00 | 0.40 | 0.00 | 98 | 1014.2 |
| 20260903114540 | 68 | 0 | 0.0 | 0.0 | 0.00 | 0.40 | 0.00 | 98 | 1014.2 |
| 20260903113521 | 68 | 0 | 0.0 | 0.0 | 0.00 | 0.40 | 0.00 | 98 | 1014.0 |
| 20260903113042 | 68 | 0 | 0.0 | 0.0 | 0.00 | 0.40 | 0.00 | 98 | 1013.9 |
| 20260903112522 | 68 | 0 | 0.0 | 0.0 | 0.00 | 0.40 | 0.00 | 98 | 1013.8 |
| 20260903112023 | 68 | 0 | 0.0 | 0.0 | 0.00 | 0.40 | 0.00 | 98 | 1013.8 |
| 20260903111539 | 68 | 0 | 0.0 | 0.0 | 0.00 | 0.40 | 0.00 | 98 | 1013.8 |
| 20260903111020 | 68 | 0 | 0.0 | 1.0 | 0.00 | 0.40 | 0.00 | 98 | 1013.9 |
| 20260903110524 | 68 | 0 | 0.0 | 1.0 | 0.00 | 0.40 | 0.00 | 98 | 1013.8 |
| 20260903110108 | 67 | 0 | 0.0 | 0.0 | 0.00 | 0.40 | 0.00 | 98 | 1013.8 |
| 20260903105519 | 67 | 0 | 0.0 | 0.0 | 0.00 | 0.40 | 0.00 | 98 | 1013.8 |
| 20260903104541 | 67 | 0 | 0.0 | 0.0 | 0.00 | 0.40 | 0.00 | 98 | 1014.0 |
| 20260903103039 | 67 | 0 | 0.0 | 0.0 | 0.00 | 0.40 | 0.00 | 98 | 1013.8 |
| 20260903102519 | 67 | 0 | 0.0 | 0.0 | 0.00 | 0.40 | 0.00 | 98 | 1013.9 |
| 20260903102017 | 67 | 0 | 0.0 | 0.0 | 0.00 | 0.40 | 0.00 | 98 | 1014.0 |
| 20260903101537 | 67 | 0 | 0.0 | 0.0 | 0.00 | 0.40 | 0.00 | 98 | 1013.9 |
| 20260903100040 | 67 | 0 | 0.0 | 0.0 | 0.00 | 0.40 | 0.00 | 98 | 1013.9 |
| 20260903095018 | 67 | 0 | 0.0 | 0.0 | 0.00 | 0.40 | 0.00 | 98 | 1013.8 |
| 20260903094551 | 67 | 0 | 0.0 | 0.0 | 0.00 | 0.40 | 0.00 | 98 | 1013.8 |
| 20260903094019 | 67 | 0 | 0.0 | 0.0 | 0.00 | 0.40 | 0.00 | 98 | 1013.8 |
| 20260903093517 | 67 | 0 | 0.0 | 0.0 | 0.00 | 0.40 | 0.00 | 98 | 1013.7 |
| 20260903093040 | 67 | 0 | 0.0 | 1.0 | 0.00 | 0.40 | 0.00 | 98 | 1013.6 |
| 20260903092522 | 67 | 0 | 0.0 | 1.0 | 0.00 | 0.40 | 0.00 | 98 | 1013.7 |
| 20260903092020 | 67 | 0 | 0.0 | 0.0 | 0.00 | 0.40 | 0.00 | 98 | 1013.7 |
| 20260903091542 | 67 | 0 | 0.0 | 0.0 | 0.00 | 0.40 | 0.00 | 98 | 1013.8 |
| 20260903090040 | 67 | 0 | 0.0 | 1.0 | 0.00 | 0.40 | 0.00 | 98 | 1013.6 |
| 20260903084539 | 67 | 290 | 0.0 | 2.0 | 0.00 | 0.40 | 0.00 | 98 | 1013.8 |
| 20260903084020 | 67 | 290 | 0.0 | 2.0 | 0.00 | 0.40 | 0.00 | 98 | 1013.8 |
| 20260903083520 | 67 | 0 | 0.0 | 2.0 | 0.00 | 0.40 | 0.00 | 98 | 1013.8 |
| 20260903083038 | 67 | 0 | 0.0 | 1.0 | 0.00 | 0.40 | 0.00 | 98 | 1013.7 |
| 20260903082520 | 67 | 0 | 0.0 | 1.0 | 0.00 | 0.40 | 0.00 | 98 | 1013.7 |
| 20260903082020 | 67 | 0 | 0.0 | 1.0 | 0.00 | 0.40 | 0.00 | 98 | 1013.8 |
| 20260903081542 | 67 | 0 | 0.0 | 1.0 | 0.00 | 0.40 | 0.00 | 98 | 1013.9 |
| 20260903080041 | 67 | 0 | 0.0 | 2.0 | 0.00 | 0.40 | 0.00 | 98 | 1013.9 |
| 20260903075520 | 67 | 0 | 0.0 | 0.0 | 0.00 | 0.40 | 0.00 | 98 | 1013.9 |
| 20260903075020 | 67 | 0 | 0.0 | 1.0 | 0.00 | 0.40 | 0.00 | 98 | 1013.9 |
| 20260903074541 | 67 | 0 | 0.0 | 1.0 | 0.00 | 0.40 | 0.00 | 98 | 1013.9 |
| 20260903074024 | 67 | 0 | 0.0 | 0.0 | 0.00 | 0.40 | 0.00 | 98 | 1013.8 |
| 20260903073042 | 67 | 0 | 0.0 | 0.0 | 0.00 | 0.40 | 0.00 | 98 | 1014.2 |
| 20260903071539 | 67 | 0 | 0.0 | 0.0 | 0.00 | 0.40 | 0.00 | 98 | 1013.9 |
| 20260903070039 | 67 | 0 | 0.0 | 1.0 | 0.00 | 0.40 | 0.00 | 98 | 1014.2 |
| 20260903065519 | 67 | 0 | 0.0 | 1.0 | 0.00 | 0.40 | 0.00 | 98 | 1014.0 |
| 20260903065020 | 67 | 0 | 0.0 | 5.0 | 0.00 | 0.40 | 0.00 | 98 | 1014.0 |
| 20260903064544 | 67 | 0 | 0.0 | 5.0 | 0.00 | 0.40 | 0.00 | 98 | 1014.1 |
| 20260903064018 | 67 | 0 | 0.0 | 1.0 | 0.00 | 0.40 | 0.00 | 98 | 1014.0 |
| 20260903063042 | 67 | 0 | 0.0 | 0.0 | 0.00 | 0.40 | 0.00 | 98 | 1014.0 |
| 20260903062027 | 67 | 0 | 0.0 | 2.0 | 0.00 | 0.40 | 0.00 | 98 | 1014.0 |
| 20260903061550 | 66 | 0 | 0.0 | 2.0 | 0.00 | 0.40 | 0.00 | 98 | 1013.9 |
| 20260903061023 | 66 | 0 | 0.0 | 1.0 | 0.00 | 0.40 | 0.00 | 98 | 1013.9 |
| 20260903060520 | 66 | 0 | 0.0 | 1.0 | 0.00 | 0.40 | 0.00 | 98 | 1013.8 |
| 20260903060043 | 66 | 0 | 0.0 | 1.0 | 0.00 | 0.40 | 0.00 | 98 | 1013.7 |
| 20260903055523 | 66 | 0 | 0.0 | 1.0 | 0.00 | 0.40 | 0.00 | 98 | 1013.6 |
| 20260903055021 | 66 | 0 | 0.0 | 0.0 | 0.00 | 0.40 | 0.00 | 98 | 1013.8 |
| 20260903054547 | 66 | 0 | 0.0 | 2.0 | 0.00 | 0.40 | 0.00 | 98 | 1013.8 |
| 20260903054022 | 66 | 0 | 0.0 | 2.0 | 0.00 | 0.40 | 0.00 | 98 | 1013.8 |
| 20260903053101 | 66 | 0 | 0.0 | 1.0 | 0.00 | 0.40 | 0.00 | 97 | 1013.8 |
| 20260903051542 | 66 | 0 | 0.0 | 3.0 | 0.00 | 0.40 | 0.00 | 97 | 1013.9 |
| 20260903050525 | 66 | 0 | 0.0 | 3.0 | 0.00 | 0.40 | 0.00 | 97 | 1013.7 |
| 20260903050038 | 66 | 0 | 0.0 | 2.0 | 0.00 | 0.40 | 0.00 | 97 | 1013.7 |
| 20260903044551 | 66 | 0 | 0.0 | 2.0 | 0.00 | 0.40 | 0.00 | 97 | 1013.8 |
| 20260903043038 | 66 | 0 | 0.0 | 4.0 | 0.00 | 0.40 | 0.00 | 97 | 1014.2 |
| 20260903042527 | 66 | 0 | 0.0 | 2.0 | 0.00 | 0.40 | 0.00 | 97 | 1014.3 |
| 20260903042020 | 66 | 212 | 0.0 | 1.0 | 0.00 | 0.40 | 0.00 | 97 | 1014.4 |
| 20260903041540 | 66 | 0 | 0.0 | 2.0 | 0.00 | 0.40 | 0.00 | 97 | 1014.6 |
| 20260903041017 | 67 | 0 | 0.0 | 2.0 | 0.00 | 0.40 | 0.00 | 97 | 1014.6 |
| 20260903040519 | 67 | 0 | 0.0 | 2.0 | 0.00 | 0.40 | 0.00 | 97 | 1014.7 |
| 20260903040037 | 67 | 0 | 0.0 | 2.0 | 0.00 | 0.40 | 0.00 | 97 | 1014.7 |
| 20260903034538 | 67 | 0 | 0.0 | 2.0 | 0.01 | 0.40 | 0.40 | 96 | 1014.2 |
| 20260903033039 | 67 | 0 | 0.0 | 5.0 | 0.04 | 0.40 | 0.40 | 96 | 1013.1 |
| 20260903032521 | 67 | 282 | 1.0 | 5.0 | 0.04 | 0.40 | 0.40 | 96 | 1013.0 |
| 20260903032020 | 67 | 202 | 1.0 | 5.0 | 0.06 | 0.40 | 0.40 | 96 | 1012.8 |
| 20260903031537 | 68 | 224 | 1.0 | 4.0 | 0.06 | 0.40 | 0.40 | 97 | 1013.0 |
| 20260903031022 | 68 | 350 | 0.0 | 4.0 | 0.07 | 0.40 | 0.40 | 97 | 1013.4 |
| 20260903030521 | 68 | 0 | 0.0 | 4.0 | 0.08 | 0.40 | 0.40 | 97 | 1013.7 |
| 20260903030045 | 68 | 0 | 0.0 | 6.0 | 0.09 | 0.40 | 0.40 | 97 | 1014.0 |
| 20260903024545 | 68 | 280 | 2.0 | 7.0 | 0.10 | 0.39 | 0.39 | 96 | 1014.1 |
| 20260903023039 | 69 | 287 | 2.0 | 12.0 | 0.09 | 0.36 | 0.36 | 96 | 1013.3 |
| 20260903022521 | 69 | 304 | 2.0 | 12.0 | 0.08 | 0.35 | 0.35 | 96 | 1014.0 |
| 20260903022021 | 69 | 101 | 2.0 | 11.0 | 0.07 | 0.34 | 0.34 | 96 | 1014.1 |
| 20260903021540 | 69 | 0 | 3.0 | 8.0 | 0.07 | 0.34 | 0.34 | 96 | 1014.2 |
| 20260903021020 | 69 | 306 | 2.0 | 8.0 | 0.07 | 0.33 | 0.33 | 96 | 1014.4 |
| 20260903020523 | 69 | 286 | 2.0 | 5.0 | 0.06 | 0.32 | 0.32 | 96 | 1014.6 |
| 20260903020041 | 69 | 280 | 1.0 | 5.0 | 0.05 | 0.31 | 0.31 | 96 | 1014.3 |
| 20260903014543 | 69 | 0 | 0.0 | 5.0 | 0.04 | 0.29 | 0.29 | 96 | 1015.0 |
| 20260903014020 | 69 | 242 | 1.0 | 5.0 | 0.03 | 0.28 | 0.28 | 95 | 1015.1 |
| 20260903013520 | 69 | 269 | 0.0 | 5.0 | 0.03 | 0.28 | 0.28 | 95 | 1015.3 |
| 20260903013038 | 70 | 227 | 1.0 | 5.0 | 0.02 | 0.27 | 0.27 | 95 | 1015.8 |
| 20260903012519 | 70 | 227 | 1.0 | 5.0 | 0.02 | 0.27 | 0.27 | 95 | 1016.1 |
| 20260903011543 | 70 | 0 | 1.0 | 3.0 | 0.02 | 0.27 | 0.27 | 94 | 1015.9 |
| 20260903010043 | 71 | 0 | 0.0 | 3.0 | 0.01 | 0.26 | 0.26 | 92 | 1015.6 |
| 20260903005021 | 71 | 208 | 0.0 | 7.0 | 0.00 | 0.25 | 0.25 | 92 | 1015.4 |
| 20260903004547 | 71 | 208 | 1.0 | 7.0 | 0.00 | 0.25 | 0.25 | 92 | 1015.3 |
| 20260903004021 | 71 | 265 | 1.0 | 5.0 | 0.00 | 0.25 | 0.25 | 92 | 1015.3 |
| 20260903003520 | 71 | 265 | 1.0 | 5.0 | 0.00 | 0.25 | 0.25 | 92 | 1015.3 |
| 20260903003039 | 71 | 28 | 0.0 | 4.0 | 0.00 | 0.25 | 0.25 | 91 | 1015.3 |
| 20260903002522 | 71 | 0 | 1.0 | 5.0 | 0.00 | 0.25 | 0.25 | 91 | 1015.1 |
| 20260903002020 | 71 | 0 | 1.0 | 5.0 | 0.00 | 0.25 | 0.25 | 91 | 1015.1 |
| 20260903001538 | 71 | 0 | 0.0 | 4.0 | 0.00 | 0.25 | 0.25 | 91 | 1015.1 |
| 20260903000043 | 71 | 0 | 0.0 | 7.0 | 0.00 | 0.25 | 0.25 | 91 | 1015.1 |
| 20260902235023 | 71 | 327 | 2.0 | 5.0 | 0.00 | 0.25 | 0.25 | 91 | 1014.9 |
| 20260902234539 | 72 | 306 | 1.0 | 6.0 | 0.00 | 0.25 | 0.25 | 90 | 1015.1 |
| 20260902234021 | 72 | 0 | 0.0 | 10.0 | 0.00 | 0.25 | 0.25 | 90 | 1015.0 |
| 20260902233522 | 72 | 113 | 1.0 | 10.0 | 0.00 | 0.25 | 0.25 | 90 | 1015.1 |
| 20260902233039 | 72 | 344 | 1.0 | 7.0 | 0.00 | 0.25 | 0.25 | 90 | 1015.4 |
| 20260902232520 | 72 | 338 | 2.0 | 7.0 | 0.00 | 0.25 | 0.25 | 90 | 1015.3 |
| 20260902232019 | 72 | 300 | 1.0 | 6.0 | 0.00 | 0.25 | 0.25 | 90 | 1015.0 |
| 20260902231547 | 72 | 22 | 2.0 | 6.0 | 0.00 | 0.25 | 0.25 | 90 | 1014.6 |
| 20260902231018 | 72 | 329 | 2.0 | 8.0 | 0.00 | 0.25 | 0.25 | 90 | 1014.4 |
| 20260902230040 | 73 | 0 | 1.0 | 9.0 | 0.00 | 0.25 | 0.25 | 89 | 1014.2 |
| 20260902224540 | 73 | 269 | 2.0 | 8.0 | 0.00 | 0.25 | 0.25 | 89 | 1014.0 |
| 20260902223518 | 73 | 271 | 2.0 | 7.0 | 0.00 | 0.25 | 0.25 | 88 | 1014.1 |
| 20260902223041 | 74 | 306 | 2.0 | 7.0 | 0.00 | 0.25 | 0.25 | 88 | 1014.4 |